PRMJM KMIA-KMLB

Flight info

Callsign PRMJM
Flight time 0h 33m
Altitude 13000
Route FLMGO2 WAPOM VALKA
Aircraft C25C/M-SDE2E3FGHRWXY/LB1

Departure

Time 2026-04-26 17:52
Airport Miami International Airport (KMIA)

Arrival

Time 2026-04-26 18:26
Airport Melbourne Orlando International Airport (KMLB)
Time Latitude Longitude Altitude Speed Heading
2026-04-26 17:39 25.80470 -80.30171 14 ft 0 kts 88°
2026-04-26 17:49 25.80467 -80.30147 14 ft 3 kts 94°
2026-04-26 17:50 25.80450 -80.30107 13 ft 6 kts 157°
2026-04-26 17:50 25.80386 -80.30143 12 ft 0 kts 214°
2026-04-26 17:50 25.80383 -80.30144 12 ft 4 kts 203°
2026-04-26 17:50 25.80316 -80.30143 11 ft 16 kts 175°
2026-04-26 17:51 25.80177 -80.30137 10 ft 22 kts 179°
2026-04-26 17:51 25.80072 -80.30100 9 ft 0 kts 87°
2026-04-26 17:52 25.80083 -80.29861 8 ft 83 kts 88°
2026-04-26 17:52 25.80115 -80.28915 19 ft 152 kts 85°
2026-04-26 17:52 25.80251 -80.27655 476 ft 166 kts 86°
2026-04-26 17:52 25.80304 -80.26299 1654 ft 177 kts 92°
2026-04-26 17:53 25.80353 -80.24975 3394 ft 168 kts 89°
2026-04-26 17:53 25.80402 -80.23684 4956 ft 164 kts 89°
2026-04-26 17:53 25.80441 -80.22436 6393 ft 170 kts 88°
2026-04-26 17:54 25.80687 -80.18867 8079 ft 239 kts 68°
2026-04-26 17:54 25.81481 -80.17343 10045 ft 226 kts 46°
2026-04-26 17:54 25.82742 -80.16308 11337 ft 227 kts 20°
2026-04-26 17:54 25.84273 -80.16013 12746 ft 225 kts 359°
2026-04-26 17:55 25.85908 -80.15863 13785 ft 249 kts 360°
2026-04-26 17:55 25.87701 -80.15784 13985 ft 272 kts 358°
2026-04-26 17:55 25.89615 -80.15833 13977 ft 276 kts 347°
2026-04-26 17:55 25.91449 -80.16474 13978 ft 279 kts 339°
2026-04-26 17:56 25.93324 -80.17109 13979 ft 285 kts 340°
2026-04-26 17:56 25.97296 -80.18486 13978 ft 310 kts 340°
2026-04-26 17:57 26.00958 -80.21121 13981 ft 323 kts 318°
2026-04-26 17:57 26.02661 -80.22786 13979 ft 329 kts 317°
2026-04-26 17:57 26.04365 -80.24515 13962 ft 334 kts 317°
2026-04-26 17:57 26.06084 -80.26228 13962 ft 337 kts 317°
2026-04-26 17:58 26.11402 -80.31497 13963 ft 344 kts 317°
2026-04-26 17:59 26.14988 -80.35063 13966 ft 346 kts 317°
2026-04-26 17:59 26.16787 -80.36855 13967 ft 347 kts 317°
2026-04-26 17:59 26.18594 -80.38653 13962 ft 347 kts 317°
2026-04-26 17:59 26.20374 -80.40425 13961 ft 348 kts 317°
2026-04-26 18:00 26.22183 -80.42220 13963 ft 348 kts 318°
2026-04-26 18:00 26.24265 -80.43613 13949 ft 351 kts 334°
2026-04-26 18:00 26.26474 -80.44777 13953 ft 352 kts 332°
2026-04-26 18:00 26.28711 -80.45994 13965 ft 363 kts 333°
2026-04-26 18:01 26.30989 -80.47204 13962 ft 366 kts 333°
2026-04-26 18:01 26.33244 -80.48383 13962 ft 350 kts 333°
2026-04-26 18:01 26.35406 -80.49534 13960 ft 337 kts 333°
2026-04-26 18:01 26.37495 -80.50646 13953 ft 328 kts 332°
2026-04-26 18:02 26.39529 -80.51734 13954 ft 321 kts 333°
2026-04-26 18:02 26.40864 -80.52439 13962 ft 323 kts 333°
2026-04-26 18:02 26.43618 -80.53905 14947 ft 337 kts 333°
2026-04-26 18:02 26.45798 -80.55071 14957 ft 358 kts 333°
2026-04-26 18:03 26.48002 -80.56232 14960 ft 346 kts 334°
2026-04-26 18:03 26.50330 -80.57101 14962 ft 360 kts 342°
2026-04-26 18:03 26.52791 -80.57852 14964 ft 370 kts 342°
2026-04-26 18:03 26.55317 -80.58573 14960 ft 375 kts 348°
2026-04-26 18:04 26.57872 -80.58583 14953 ft 364 kts 359°
2026-04-26 18:04 26.60378 -80.58575 14955 ft 364 kts 357°
2026-04-26 18:04 26.62924 -80.58567 14958 ft 366 kts 358°
2026-04-26 18:05 26.68047 -80.58495 14968 ft 368 kts 358°
2026-04-26 18:05 26.70624 -80.58471 14969 ft 369 kts 358°
2026-04-26 18:05 26.73160 -80.58445 14967 ft 370 kts 358°
2026-04-26 18:05 26.75738 -80.58419 14963 ft 371 kts 358°
2026-04-26 18:06 26.78326 -80.58388 14964 ft 371 kts 358°
2026-04-26 18:06 26.80914 -80.58360 14968 ft 371 kts 358°
2026-04-26 18:06 26.83496 -80.58334 14969 ft 371 kts 358°
2026-04-26 18:06 26.86089 -80.58303 14965 ft 372 kts 358°
2026-04-26 18:07 26.88689 -80.58279 14963 ft 372 kts 358°
2026-04-26 18:07 26.91276 -80.58246 14968 ft 372 kts 358°
2026-04-26 18:07 26.93865 -80.58222 14964 ft 372 kts 358°
2026-04-26 18:07 26.95584 -80.58200 14964 ft 372 kts 358°
2026-04-26 18:08 26.99018 -80.58164 14965 ft 373 kts 358°
2026-04-26 18:08 27.01627 -80.58136 14963 ft 374 kts 358°
2026-04-26 18:08 27.04229 -80.58108 14963 ft 374 kts 358°
2026-04-26 18:08 27.06831 -80.58082 14958 ft 373 kts 358°
2026-04-26 18:09 27.09427 -80.58053 14962 ft 373 kts 358°
2026-04-26 18:09 27.12029 -80.58019 14957 ft 373 kts 358°
2026-04-26 18:09 27.14600 -80.57996 14961 ft 373 kts 358°
2026-04-26 18:09 27.17194 -80.57966 14954 ft 373 kts 358°
2026-04-26 18:10 27.19795 -80.57938 14951 ft 373 kts 358°
2026-04-26 18:10 27.22391 -80.57910 14952 ft 373 kts 358°
2026-04-26 18:10 27.24996 -80.57884 14953 ft 373 kts 358°
2026-04-26 18:10 27.27595 -80.57852 14960 ft 374 kts 358°
2026-04-26 18:11 27.30200 -80.57825 14918 ft 374 kts 358°
2026-04-26 18:11 27.32818 -80.57797 14575 ft 369 kts 358°
2026-04-26 18:11 27.35279 -80.57761 14223 ft 348 kts 358°
2026-04-26 18:11 27.37718 -80.57739 14083 ft 361 kts 357°
2026-04-26 18:12 27.40239 -80.57721 13947 ft 360 kts 358°
2026-04-26 18:12 27.42721 -80.57689 13812 ft 352 kts 358°
2026-04-26 18:12 27.45169 -80.57657 13658 ft 358 kts 358°
2026-04-26 18:12 27.47676 -80.57628 13508 ft 359 kts 358°
2026-04-26 18:13 27.50191 -80.57591 13355 ft 360 kts 358°
2026-04-26 18:13 27.52691 -80.57571 12850 ft 356 kts 358°
2026-04-26 18:13 27.55123 -80.57551 12271 ft 352 kts 358°
2026-04-26 18:13 27.56784 -80.57532 11743 ft 354 kts 358°
2026-04-26 18:14 27.60061 -80.57495 10734 ft 356 kts 358°
2026-04-26 18:14 27.62540 -80.57464 10173 ft 353 kts 358°
2026-04-26 18:14 27.64984 -80.57438 9970 ft 351 kts 358°
2026-04-26 18:14 27.67446 -80.57415 9538 ft 348 kts 358°
2026-04-26 18:15 27.69806 -80.57384 9096 ft 337 kts 358°
2026-04-26 18:15 27.72138 -80.57360 8657 ft 332 kts 358°
2026-04-26 18:15 27.74445 -80.57333 8225 ft 330 kts 358°
2026-04-26 18:15 27.76745 -80.57308 7776 ft 325 kts 358°
2026-04-26 18:16 27.78892 -80.57282 7372 ft 294 kts 358°
2026-04-26 18:16 27.82716 -80.57244 6648 ft 268 kts 357°
2026-04-26 18:16 27.84583 -80.57227 6294 ft 265 kts 358°
2026-04-26 18:17 27.86418 -80.57207 5936 ft 262 kts 358°
2026-04-26 18:17 27.88207 -80.56953 5540 ft 261 kts 19°
2026-04-26 18:17 27.89668 -80.55795 5376 ft 251 kts 38°
2026-04-26 18:17 27.90946 -80.54510 5228 ft 244 kts 41°
2026-04-26 18:18 27.92165 -80.53202 4937 ft 245 kts 41°
2026-04-26 18:18 27.93419 -80.51905 4859 ft 239 kts 40°
2026-04-26 18:18 27.94649 -80.50650 4856 ft 238 kts 40°
2026-04-26 18:18 27.95876 -80.49396 4759 ft 239 kts 40°
2026-04-26 18:19 27.97092 -80.48149 4455 ft 236 kts 40°
2026-04-26 18:19 27.98302 -80.46899 4120 ft 229 kts 41°
2026-04-26 18:19 27.99475 -80.45693 3589 ft 228 kts 41°
2026-04-26 18:19 28.00638 -80.44497 2899 ft 223 kts 41°
2026-04-26 18:20 28.01769 -80.43336 2265 ft 219 kts 40°
2026-04-26 18:20 28.03017 -80.42506 2090 ft 199 kts 10°
2026-04-26 18:20 28.04325 -80.42506 2079 ft 184 kts 346°
2026-04-26 18:20 28.04745 -80.42616 2084 ft 182 kts 343°
2026-04-26 18:21 28.06778 -80.43161 2078 ft 180 kts 343°
2026-04-26 18:21 28.07995 -80.43488 2077 ft 180 kts 344°
2026-04-26 18:21 28.09216 -80.43814 2082 ft 180 kts 343°
2026-04-26 18:21 28.10370 -80.44304 2071 ft 176 kts 320°
2026-04-26 18:22 28.11159 -80.45308 2063 ft 171 kts 296°
2026-04-26 18:22 28.11462 -80.46581 2068 ft 168 kts 271°
2026-04-26 18:22 28.11402 -80.47916 2074 ft 172 kts 266°
2026-04-26 18:22 28.11340 -80.49284 2088 ft 177 kts 265°
2026-04-26 18:23 28.11270 -80.50703 2074 ft 179 kts 266°
2026-04-26 18:23 28.11200 -80.52105 1960 ft 177 kts 266°
2026-04-26 18:23 28.11138 -80.53486 1821 ft 174 kts 266°
2026-04-26 18:23 28.11074 -80.54789 1602 ft 157 kts 265°
2026-04-26 18:24 28.11019 -80.55962 1404 ft 146 kts 266°
2026-04-26 18:24 28.10967 -80.57084 1215 ft 141 kts 265°
2026-04-26 18:24 28.10910 -80.58208 1032 ft 145 kts 267°
2026-04-26 18:24 28.10860 -80.59363 851 ft 147 kts 267°
2026-04-26 18:25 28.10804 -80.60513 674 ft 144 kts 266°
2026-04-26 18:25 28.10749 -80.61632 490 ft 141 kts 269°
2026-04-26 18:25 28.10695 -80.62743 303 ft 140 kts 267°
2026-04-26 18:25 28.10645 -80.63783 127 ft 119 kts 269°
2026-04-26 18:26 28.10616 -80.64351 25 ft 98 kts 267°
2026-04-26 18:26 28.10588 -80.65019 35 ft 25 kts 264°
2026-04-26 18:26 28.10588 -80.65109 37 ft 10 kts 270°
2026-04-26 18:26 28.10580 -80.65211 38 ft 21 kts 273°
2026-04-26 18:27 28.10688 -80.65282 35 ft 20 kts 356°
2026-04-26 18:27 28.10820 -80.65289 36 ft 17 kts
2026-04-26 18:27 28.10841 -80.65267 35 ft 0 kts 73°
2026-04-26 18:27 28.10847 -80.65152 35 ft 19 kts 86°
2026-04-26 18:28 28.10857 -80.64907 34 ft 22 kts 90°
2026-04-26 18:28 28.10856 -80.64887 34 ft 1 kts 98°
2026-04-26 18:28 28.10871 -80.64859 33 ft 6 kts 355°
2026-04-26 18:28 28.10896 -80.64830 32 ft 0 kts 99°
2026-04-26 18:29 28.10891 -80.64826 32 ft 1 kts 177°
2026-04-26 18:29 28.10889 -80.64831 32 ft 0 kts 263°
2026-04-26 18:29 28.10889 -80.64832 32 ft 0 kts 268°